Weather History for KHIB - October, 2012

Change the Weather History Date:

Sunday, October 21, 2012

  Actual Average Record
Temperature  
Mean Temperature 44 °F -  
Max Temperature 59 °F 49 °F 75 °F (1978)
Min Temperature 30 °F 30 °F 15 °F (2011)
Degree Days  
Heating Degree Days 20    
Moisture  
Dew Point 38 °F    
Average Humidity 79    
Maximum Humidity 100    
Minimum Humidity 48    
Precipitation  
Precipitation 0.00 in - - ()
Sea Level Pressure  
Sea Level Pressure 29.88 in    
Wind  
Wind Speed 3 mph (SE)    
Max Wind Speed 10 mph    
Max Gust Speed -    
Visibility 8 miles    
Events Rain    
Averages and records for this station are not official NWS values.
T = Trace of Precipitation, MM = Missing Value Source: NWS Daily Summary

Daily Weather History Graph

Daily Weather History Graph

Search for Another Location

Airport or City:

Trip Planner

Search our weather history database for the weather conditions in past years. The results will help you decide how hot, cold, wet, or windy it might be!

Date:

Astronomy

Oct. 21, 2012 Rise Set
Actual Time 7:39 AM CDT 6:11 PM CDT
Civil Twilight 7:08 AM CDT 6:42 PM CDT
Nautical Twilight 6:32 AM CDT 7:18 PM CDT
Astronomical Twilight 5:56 AM CDT 7:54 PM CDT
Moon 2:08 PM CDT (10/21) No Moon Set
Length of Visible Light 11h 34m
Length of Day
10h 32m
Waxing Crescent, 45% of the Moon is Illuminated
Oct 21
Waxing Crescent
Oct 21
First Quarter
Oct 29
Full
Nov 6
Last Quarter
Nov 13
New

Hourly Weather History & Observations

Time (CDT) Temp. Windchill Dew Point Humidity Pressure Visibility Wind Dir Wind Speed Gust Speed Precip Events Conditions
12:53 AM 35.1 °F 32.2 °F 32.0 °F 89% 29.84 in 10.0 mi SE 3.5 mph - N/A   Clear
1:53 AM 32.0 °F - 30.9 °F 96% 29.84 in 10.0 mi Calm Calm - N/A   Scattered Clouds
2:53 AM 32.0 °F - 30.0 °F 92% 29.86 in 9.0 mi Calm Calm - N/A   Mostly Cloudy
3:53 AM 30.9 °F - 28.9 °F 92% 29.85 in 10.0 mi Calm Calm - N/A   Partly Cloudy
4:53 AM 33.1 °F 28.7 °F 30.9 °F 92% 29.84 in 9.0 mi ESE 4.6 mph - N/A   Mostly Cloudy
5:49 AM 37.4 °F 34.9 °F 37.4 °F 100% 29.81 in 7.0 mi ESE 3.5 mph - N/A   Scattered Clouds
5:53 AM 37.9 °F - 37.0 °F 97% 29.84 in 6.0 mi Calm Calm - N/A   Scattered Clouds
6:20 AM 37.4 °F - 35.6 °F 93% 29.81 in 4.0 mi Calm Calm - N/A   Mostly Cloudy
6:53 AM 37.9 °F 34.4 °F 36.0 °F 93% 29.86 in 5.0 mi SE 4.6 mph - N/A   Overcast
7:53 AM 39.9 °F - 37.0 °F 89% 29.88 in 3.0 mi Calm Calm - N/A   Overcast
8:35 AM 41.0 °F 38.0 °F 37.4 °F 87% 29.84 in 4.0 mi ESE 4.6 mph - 0.00 in Rain Light Rain
8:53 AM 41.0 °F 38.0 °F 39.0 °F 93% 29.88 in 4.0 mi ESE 4.6 mph - 0.00 in   Mostly Cloudy
9:21 AM 41.0 °F 39.0 °F 39.2 °F 93% 29.85 in 5.0 mi ESE 3.5 mph - N/A   Partly Cloudy
9:53 AM 43.0 °F 37.7 °F 39.9 °F 89% 29.90 in 5.0 mi SE 9.2 mph - N/A   Overcast
10:53 AM 45.0 °F 40.1 °F 41.0 °F 86% 29.90 in 6.0 mi SE 9.2 mph - N/A   Overcast
11:39 AM 50.0 °F - 42.8 °F 76% 29.85 in 10.0 mi SSE 8.1 mph - N/A   Scattered Clouds
11:53 AM 52.0 °F - 43.0 °F 71% 29.89 in 10.0 mi SE 10.4 mph - N/A   Clear
12:53 PM 57.0 °F - 43.0 °F 59% 29.88 in 10.0 mi SSE 10.4 mph - N/A   Clear
1:53 PM 57.9 °F - 43.0 °F 58% 29.87 in 10.0 mi SSE 9.2 mph - N/A   Clear
2:53 PM 59.0 °F - 39.9 °F 49% 29.85 in 10.0 mi SSE 8.1 mph - N/A   Clear
3:53 PM 59.0 °F - 39.0 °F 48% 29.86 in 10.0 mi ESE 5.8 mph - N/A   Clear
4:53 PM 57.0 °F - 39.0 °F 51% 29.87 in 10.0 mi SE 8.1 mph - N/A   Overcast
5:53 PM 55.9 °F - 39.9 °F 55% 29.90 in 10.0 mi South 4.6 mph - N/A   Overcast
6:53 PM 52.0 °F - 41.0 °F 66% 29.93 in 10.0 mi Calm Calm - N/A   Scattered Clouds
7:53 PM 50.0 °F - 39.9 °F 68% 29.95 in 10.0 mi NNW 3.5 mph - N/A   Partly Cloudy
8:53 PM 46.9 °F - 41.0 °F 80% 29.96 in 10.0 mi Calm Calm - N/A   Partly Cloudy
9:53 PM 46.9 °F - 41.0 °F 80% 29.97 in 10.0 mi Calm Calm - N/A   Overcast
10:53 PM 48.9 °F - 42.1 °F 77% 29.99 in 10.0 mi Calm Calm - N/A   Mostly Cloudy
11:53 PM 48.0 °F - 43.0 °F 83% 29.97 in 10.0 mi Calm Calm - N/A   Mostly Cloudy